Back to catalog

STARLINK-33993

AliveCommunicationsVLEO
NORAD 63949·PAYLOAD·🇺🇸 United States

Launched May 13, 2025 from Vandenberg Space Force Base

Loading…

Next Passes (next 24 hours)

TLE

FreshSource: CelesTrak SupGP

Epoch: Sep 14, 2026, 22:10 UTC

1 63949C 25098Z   26257.92409722 -.00058115  00000+0 -20212-2 0  2579
2 63949  70.0001 155.7355 0003273 269.0099 233.5926 15.29614981    19

Track STARLINK-33993 in real time with AllMySat

Download on the App Store